DAL88 KJAX-KCLT

Flight info

Callsign DAL88
Flight time 0h 55m
Altitude 37000
Route BRSTL1 BAXLY PONZE BANKR5
Aircraft B739/M-SDE2E3FGHIRWXY/LB1

Departure

Time 2026-05-04 01:09
Airport Jacksonville International Airport (KJAX)

Arrival

Time 2026-05-04 02:04
Airport Charlotte Douglas International Airport (KCLT)
Time Latitude Longitude Altitude Speed Heading
2026-05-04 00:42 30.49343 -81.68512 39 ft 0 kts 266°
2026-05-04 00:59 30.49343 -81.68503 39 ft 3 kts 265°
2026-05-04 00:59 30.49346 -81.68476 40 ft 3 kts 270°
2026-05-04 01:00 30.49345 -81.68459 40 ft 1 kts 286°
2026-05-04 01:05 30.49345 -81.68460 40 ft 2 kts 290°
2026-05-04 01:05 30.49376 -81.68477 39 ft 8 kts 345°
2026-05-04 01:05 30.49439 -81.68477 38 ft 10 kts
2026-05-04 01:05 30.49509 -81.68489 37 ft 11 kts 342°
2026-05-04 01:06 30.49583 -81.68508 36 ft 11 kts
2026-05-04 01:06 30.49672 -81.68490 35 ft 22 kts 12°
2026-05-04 01:06 30.49877 -81.68587 36 ft 41 kts 295°
2026-05-04 01:06 30.49804 -81.68839 38 ft 36 kts 251°
2026-05-04 01:07 30.49722 -81.69111 37 ft 35 kts 249°
2026-05-04 01:07 30.49640 -81.69361 40 ft 32 kts 252°
2026-05-04 01:07 30.49567 -81.69604 38 ft 31 kts 249°
2026-05-04 01:07 30.49498 -81.69826 33 ft 24 kts 252°
2026-05-04 01:08 30.49508 -81.69941 31 ft 11 kts 333°
2026-05-04 01:08 30.49581 -81.69959 32 ft 11 kts 345°
2026-05-04 01:08 30.49633 -81.69950 33 ft 0 kts 41°
2026-05-04 01:08 30.49680 -81.69806 35 ft 61 kts 69°
2026-05-04 01:09 30.49931 -81.68985 38 ft 151 kts 70°
2026-05-04 01:09 30.50347 -81.67712 740 ft 172 kts 71°
2026-05-04 01:09 30.50764 -81.66428 1775 ft 178 kts 69°
2026-05-04 01:09 30.51823 -81.65304 1348 ft 221 kts 20°
2026-05-04 01:10 30.53259 -81.65382 1433 ft 203 kts 337°
2026-05-04 01:10 30.54393 -81.66224 1544 ft 185 kts 329°
2026-05-04 01:10 30.55536 -81.67109 1714 ft 215 kts 328°
2026-05-04 01:10 30.56887 -81.68129 1888 ft 247 kts 329°
2026-05-04 01:11 30.58414 -81.69257 1977 ft 267 kts 329°
2026-05-04 01:11 30.59988 -81.70399 2003 ft 265 kts 330°
2026-05-04 01:11 30.61556 -81.71518 2014 ft 265 kts 330°
2026-05-04 01:11 30.63142 -81.72633 2024 ft 268 kts 330°
2026-05-04 01:12 30.64748 -81.73754 2059 ft 271 kts 330°
2026-05-04 01:12 30.65824 -81.74503 2303 ft 273 kts 330°
2026-05-04 01:12 30.67931 -81.75962 3909 ft 260 kts 329°
2026-05-04 01:12 30.69467 -81.77023 5119 ft 255 kts 329°
2026-05-04 01:13 30.71014 -81.78089 6051 ft 260 kts 329°
2026-05-04 01:13 30.72058 -81.78809 6620 ft 265 kts 329°
2026-05-04 01:13 30.73665 -81.79916 7428 ft 271 kts 328°
2026-05-04 01:13 30.75301 -81.81043 8304 ft 275 kts 328°
2026-05-04 01:14 30.76955 -81.82183 9210 ft 278 kts 327°
2026-05-04 01:14 30.78635 -81.83341 10076 ft 283 kts 327°
2026-05-04 01:14 30.80362 -81.84532 10635 ft 298 kts 327°
2026-05-04 01:14 30.82226 -81.85821 10870 ft 322 kts 327°
2026-05-04 01:15 30.84189 -81.87175 11498 ft 331 kts 327°
2026-05-04 01:15 30.86174 -81.88542 12324 ft 332 kts 326°
2026-05-04 01:15 30.88166 -81.89922 13194 ft 334 kts 325°
2026-05-04 01:15 30.90162 -81.91324 13974 ft 337 kts 325°
2026-05-04 01:16 30.92180 -81.92747 14647 ft 341 kts 324°
2026-05-04 01:16 30.94226 -81.94188 15301 ft 346 kts 324°
2026-05-04 01:16 30.96300 -81.95649 15984 ft 350 kts 324°
2026-05-04 01:16 30.98411 -81.97095 16659 ft 356 kts 328°
2026-05-04 01:17 31.00675 -81.98275 17310 ft 363 kts 332°
2026-05-04 01:17 31.03027 -81.99392 17954 ft 368 kts 333°
2026-05-04 01:17 31.05420 -82.00508 18580 ft 372 kts 333°
2026-05-04 01:17 31.07838 -82.01637 19139 ft 376 kts 333°
2026-05-04 01:18 31.10276 -82.02781 19708 ft 380 kts 332°
2026-05-04 01:18 31.12736 -82.03943 20265 ft 384 kts 332°
2026-05-04 01:18 31.15224 -82.05124 20815 ft 388 kts 332°
2026-05-04 01:18 31.17737 -82.06321 21362 ft 392 kts 331°
2026-05-04 01:19 31.20273 -82.07532 21897 ft 396 kts 331°
2026-05-04 01:19 31.22831 -82.08755 22422 ft 399 kts 331°
2026-05-04 01:19 31.25417 -82.09991 22955 ft 404 kts 331°
2026-05-04 01:19 31.28032 -82.11243 23459 ft 408 kts 330°
2026-05-04 01:20 31.30671 -82.12507 23927 ft 412 kts 330°
2026-05-04 01:20 31.33331 -82.13781 24406 ft 414 kts 330°
2026-05-04 01:20 31.36004 -82.15062 24866 ft 416 kts 330°
2026-05-04 01:20 31.38690 -82.16349 25341 ft 419 kts 330°
2026-05-04 01:21 31.41399 -82.17649 25777 ft 422 kts 330°
2026-05-04 01:21 31.44124 -82.18958 26204 ft 424 kts 330°
2026-05-04 01:21 31.46863 -82.20275 26645 ft 427 kts 330°
2026-05-04 01:21 31.49591 -82.21587 27073 ft 430 kts 330°
2026-05-04 01:22 31.52362 -82.22920 27499 ft 432 kts 330°
2026-05-04 01:22 31.55155 -82.24265 27909 ft 435 kts 330°
2026-05-04 01:22 31.57963 -82.25618 28314 ft 438 kts 330°
2026-05-04 01:22 31.60793 -82.26983 28714 ft 441 kts 330°
2026-05-04 01:23 31.63636 -82.28354 29120 ft 443 kts 330°
2026-05-04 01:23 31.66497 -82.29735 29512 ft 446 kts 330°
2026-05-04 01:23 31.69384 -82.31130 29906 ft 449 kts 330°
2026-05-04 01:23 31.72346 -82.32383 30250 ft 459 kts 338°
2026-05-04 01:24 31.75537 -82.33056 30568 ft 472 kts 348°
2026-05-04 01:24 31.78851 -82.33105 30889 ft 483 kts 359°
2026-05-04 01:24 31.82217 -82.32603 31211 ft 489 kts
2026-05-04 01:24 31.85541 -82.31979 31499 ft 492 kts
2026-05-04 01:25 31.88928 -82.31301 31832 ft 494 kts
2026-05-04 01:25 31.92311 -82.30623 32256 ft 493 kts
2026-05-04 01:25 31.95697 -82.29959 32716 ft 491 kts
2026-05-04 01:25 31.99064 -82.29320 33128 ft 490 kts
2026-05-04 01:26 32.02438 -82.28697 33498 ft 490 kts
2026-05-04 01:26 32.05810 -82.28084 33868 ft 490 kts
2026-05-04 01:26 32.09182 -82.27476 34238 ft 490 kts
2026-05-04 01:26 32.12553 -82.26869 34562 ft 489 kts
2026-05-04 01:27 32.15916 -82.26262 34899 ft 488 kts
2026-05-04 01:27 32.19274 -82.25655 35231 ft 487 kts
2026-05-04 01:27 32.22628 -82.25048 35549 ft 487 kts
2026-05-04 01:27 32.25973 -82.24441 35859 ft 486 kts
2026-05-04 01:28 32.29318 -82.23833 36169 ft 485 kts
2026-05-04 01:28 32.32651 -82.23226 36509 ft 484 kts
2026-05-04 01:28 32.35973 -82.22620 36858 ft 482 kts
2026-05-04 01:28 32.39246 -82.22024 37129 ft 482 kts
2026-05-04 01:29 32.42575 -82.21420 37109 ft 486 kts
2026-05-04 01:29 32.49232 -82.20205 37113 ft 481 kts
2026-05-04 01:30 32.55829 -82.18996 37105 ft 478 kts
2026-05-04 01:30 32.62385 -82.17796 37103 ft 475 kts
2026-05-04 01:31 32.68906 -82.16602 37091 ft 474 kts
2026-05-04 01:31 32.75427 -82.15407 37090 ft 474 kts
2026-05-04 01:32 32.81954 -82.14208 37092 ft 475 kts
2026-05-04 01:32 32.88506 -82.13003 37089 ft 477 kts
2026-05-04 01:33 32.95040 -82.11798 37090 ft 479 kts
2026-05-04 01:33 33.01639 -82.10580 37089 ft 480 kts
2026-05-04 01:34 33.08249 -82.09356 37088 ft 481 kts
2026-05-04 01:34 33.14868 -82.08130 37078 ft 481 kts
2026-05-04 01:35 33.21481 -82.06902 37095 ft 481 kts
2026-05-04 01:35 33.28084 -82.05675 37094 ft 480 kts
2026-05-04 01:36 33.34672 -82.04448 37096 ft 478 kts
2026-05-04 01:36 33.41240 -82.03224 37102 ft 476 kts
2026-05-04 01:37 33.47740 -82.02010 37108 ft 475 kts
2026-05-04 01:37 33.54254 -82.00793 37104 ft 473 kts
2026-05-04 01:38 33.60758 -81.99575 37104 ft 472 kts
2026-05-04 01:38 33.67246 -81.98359 37085 ft 472 kts
2026-05-04 01:38 33.70521 -81.97748 36019 ft 480 kts
2026-05-04 01:39 33.73788 -81.97130 35306 ft 472 kts
2026-05-04 01:39 33.76999 -81.96522 34693 ft 462 kts
2026-05-04 01:39 33.80108 -81.95653 34232 ft 456 kts 13°
2026-05-04 01:39 33.83052 -81.94328 33754 ft 446 kts 16°
2026-05-04 01:40 33.85897 -81.92945 33252 ft 435 kts 17°
2026-05-04 01:40 33.88650 -81.91621 32740 ft 426 kts 16°
2026-05-04 01:40 33.91388 -81.90358 32268 ft 418 kts 15°
2026-05-04 01:40 33.94110 -81.89133 31790 ft 419 kts 15°
2026-05-04 01:41 33.96866 -81.87881 31480 ft 428 kts 17°
2026-05-04 01:41 33.99668 -81.86551 31127 ft 437 kts 17°
2026-05-04 01:41 34.02477 -81.85201 30628 ft 428 kts 17°
2026-05-04 01:41 34.05164 -81.83736 30174 ft 420 kts 26°
2026-05-04 01:42 34.07639 -81.81971 29760 ft 407 kts 27°
2026-05-04 01:42 34.10023 -81.80211 29290 ft 396 kts 27°
2026-05-04 01:42 34.12350 -81.78489 28817 ft 388 kts 27°
2026-05-04 01:42 34.14636 -81.76808 28359 ft 382 kts 27°
2026-05-04 01:43 34.16893 -81.75161 27905 ft 387 kts 27°
2026-05-04 01:43 34.19242 -81.73458 27449 ft 401 kts 27°
2026-05-04 01:43 34.21666 -81.71701 26954 ft 406 kts 27°
2026-05-04 01:43 34.24057 -81.69960 26449 ft 397 kts 27°
2026-05-04 01:44 34.26392 -81.68258 25969 ft 387 kts 27°
2026-05-04 01:44 34.28670 -81.66599 25519 ft 378 kts 26°
2026-05-04 01:44 34.30905 -81.64972 25073 ft 371 kts 26°
2026-05-04 01:44 34.33096 -81.63377 24659 ft 365 kts 26°
2026-05-04 01:45 34.35264 -81.61797 24246 ft 365 kts 26°
2026-05-04 01:45 34.37468 -81.60195 23810 ft 378 kts 26°
2026-05-04 01:45 34.42038 -81.56860 22744 ft 377 kts 26°
2026-05-04 01:46 34.44255 -81.55235 22250 ft 367 kts 26°
2026-05-04 01:46 34.46416 -81.53652 21805 ft 358 kts 26°
2026-05-04 01:46 34.48523 -81.52109 21365 ft 350 kts 26°
2026-05-04 01:46 34.50573 -81.50549 20962 ft 345 kts 28°
2026-05-04 01:47 34.52547 -81.48965 20552 ft 345 kts 29°
2026-05-04 01:47 34.54570 -81.47332 20145 ft 357 kts 29°
2026-05-04 01:47 34.56675 -81.45644 19720 ft 363 kts 29°
2026-05-04 01:47 34.58734 -81.43992 19549 ft 346 kts 28°
2026-05-04 01:48 34.60707 -81.42412 19241 ft 335 kts 28°
2026-05-04 01:48 34.62638 -81.40875 18869 ft 328 kts 28°
2026-05-04 01:48 34.64523 -81.39377 18506 ft 321 kts 28°
2026-05-04 01:48 34.66380 -81.37902 18104 ft 316 kts 28°
2026-05-04 01:49 34.68217 -81.36442 17705 ft 316 kts 28°
2026-05-04 01:49 34.70080 -81.34964 17345 ft 325 kts 28°
2026-05-04 01:49 34.71994 -81.33443 16946 ft 331 kts 28°
2026-05-04 01:49 34.73899 -81.31921 16538 ft 324 kts 28°
2026-05-04 01:50 34.75756 -81.30436 16153 ft 316 kts 28°
2026-05-04 01:50 34.77544 -81.29006 15784 ft 308 kts 28°
2026-05-04 01:50 34.79315 -81.27591 15419 ft 301 kts 28°
2026-05-04 01:50 34.80995 -81.26099 15065 ft 299 kts 37°
2026-05-04 01:51 34.82520 -81.24375 14736 ft 300 kts 40°
2026-05-04 01:51 34.84035 -81.22588 14398 ft 309 kts 40°
2026-05-04 01:51 34.85611 -81.20756 14018 ft 316 kts 39°
2026-05-04 01:51 34.87192 -81.18938 13598 ft 309 kts 39°
2026-05-04 01:52 34.88740 -81.17167 13194 ft 301 kts 39°
2026-05-04 01:52 34.90252 -81.15442 12777 ft 295 kts 39°
2026-05-04 01:52 34.91737 -81.13750 12397 ft 289 kts 39°
2026-05-04 01:52 34.93188 -81.12095 12031 ft 283 kts 39°
2026-05-04 01:53 34.94619 -81.10465 11746 ft 282 kts 39°
2026-05-04 01:53 34.96082 -81.08801 11484 ft 293 kts 39°
2026-05-04 01:53 34.97589 -81.07084 11186 ft 297 kts 39°
2026-05-04 01:53 34.99237 -81.05625 10774 ft 288 kts 17°
2026-05-04 01:54 35.01138 -81.05099 10521 ft 277 kts
2026-05-04 01:54 35.03043 -81.05115 10243 ft 271 kts 353°
2026-05-04 01:54 35.04866 -81.05299 9949 ft 261 kts 352°
2026-05-04 01:54 35.06659 -81.05488 9657 ft 256 kts 352°
2026-05-04 01:55 35.08425 -81.05662 9384 ft 255 kts 353°
2026-05-04 01:55 35.10207 -81.05829 9117 ft 258 kts 353°
2026-05-04 01:55 35.12014 -81.05995 8848 ft 262 kts 353°
2026-05-04 01:55 35.13831 -81.06159 8566 ft 261 kts 353°
2026-05-04 01:56 35.15638 -81.06321 8290 ft 260 kts 353°
2026-05-04 01:56 35.17442 -81.06481 8019 ft 259 kts 353°
2026-05-04 01:56 35.19245 -81.06641 7746 ft 259 kts 353°
2026-05-04 01:56 35.21045 -81.06801 7476 ft 259 kts 353°
2026-05-04 01:57 35.22837 -81.06960 7209 ft 259 kts 353°
2026-05-04 01:57 35.24636 -81.07120 6941 ft 259 kts 353°
2026-05-04 01:57 35.26437 -81.07281 6667 ft 260 kts 353°
2026-05-04 01:57 35.28238 -81.07441 6393 ft 260 kts 353°
2026-05-04 01:58 35.30046 -81.07602 6098 ft 260 kts 353°
2026-05-04 01:58 35.31849 -81.07762 5818 ft 260 kts 353°
2026-05-04 01:58 35.33634 -81.07921 5544 ft 260 kts 353°
2026-05-04 01:58 35.35441 -81.07987 5233 ft 262 kts
2026-05-04 01:59 35.37090 -81.07143 5025 ft 253 kts 37°
2026-05-04 01:59 35.38193 -81.05550 4729 ft 246 kts 62°
2026-05-04 01:59 35.38618 -81.03513 4280 ft 246 kts 90°
2026-05-04 01:59 35.38318 -81.01483 3937 ft 239 kts 114°
2026-05-04 02:00 35.37461 -80.99812 3667 ft 225 kts 136°
2026-05-04 02:00 35.36376 -80.98539 3406 ft 209 kts 142°
2026-05-04 02:00 35.35300 -80.97369 3188 ft 205 kts 142°
2026-05-04 02:00 35.34168 -80.96341 2936 ft 202 kts 163°
2026-05-04 02:01 35.32814 -80.96139 2739 ft 191 kts 180°
2026-05-04 02:01 35.31523 -80.96055 2472 ft 179 kts 179°
2026-05-04 02:01 35.30721 -80.95993 2312 ft 169 kts 179°
2026-05-04 02:01 35.29211 -80.95866 2022 ft 158 kts 179°
2026-05-04 02:02 35.28156 -80.95776 1859 ft 142 kts 179°
2026-05-04 02:02 35.27525 -80.95722 1724 ft 132 kts 179°
2026-05-04 02:02 35.26700 -80.95652 1538 ft 131 kts 178°
2026-05-04 02:02 35.26045 -80.95596 1433 ft 133 kts 178°
2026-05-04 02:03 35.25115 -80.95518 1255 ft 135 kts 176°
2026-05-04 02:03 35.24209 -80.95440 1086 ft 133 kts 176°
2026-05-04 02:03 35.23298 -80.95355 923 ft 134 kts 177°
2026-05-04 02:03 35.22355 -80.95279 752 ft 127 kts 177°
2026-05-04 02:04 35.21597 -80.95221 738 ft 89 kts 176°
2026-05-04 02:04 35.21140 -80.95182 735 ft 42 kts 175°
2026-05-04 02:04 35.20907 -80.95159 736 ft 32 kts 175°
2026-05-04 02:04 35.20723 -80.95117 737 ft 24 kts 158°
2026-05-04 02:05 35.20637 -80.95065 737 ft 7 kts 148°
2026-05-04 02:05 35.20628 -80.95059 736 ft 0 kts 148°
2026-05-04 02:05 35.20600 -80.95035 735 ft 14 kts 145°
2026-05-04 02:06 35.20566 -80.94995 733 ft 2 kts 119°
2026-05-04 02:06 35.20562 -80.94972 733 ft 4 kts 81°
2026-05-04 02:06 35.20615 -80.94934 732 ft 15 kts
2026-05-04 02:06 35.20721 -80.94944 732 ft 15 kts 356°
2026-05-04 02:07 35.20826 -80.94950 729 ft 16 kts 360°
2026-05-04 02:07 35.20954 -80.94964 725 ft 19 kts 354°
2026-05-04 02:07 35.21083 -80.94981 731 ft 18 kts 353°
2026-05-04 02:07 35.21209 -80.94994 732 ft 18 kts 356°
2026-05-04 02:08 35.21330 -80.94999 732 ft 17 kts 358°
2026-05-04 02:08 35.21447 -80.95005 732 ft 17 kts 357°
2026-05-04 02:08 35.21556 -80.95010 732 ft 14 kts
2026-05-04 02:08 35.21619 -80.94932 731 ft 13 kts 58°
2026-05-04 02:09 35.21673 -80.94842 731 ft 13 kts 46°
2026-05-04 02:09 35.21734 -80.94765 731 ft 13 kts 46°
2026-05-04 02:09 35.21789 -80.94689 731 ft 10 kts 50°
2026-05-04 02:09 35.21800 -80.94658 731 ft 4 kts 90°
2026-05-04 02:10 35.21795 -80.94635 731 ft 0 kts 103°
2026-05-04 02:11 35.21795 -80.94634 731 ft 0 kts 103°
2026-05-04 02:11 35.21796 -80.94637 731 ft 2 kts 107°
2026-05-04 02:11 35.21804 -80.94658 730 ft 1 kts 139°
2026-05-04 02:11 35.21774 -80.94659 731 ft 15 kts 181°
2026-05-04 02:12 35.21734 -80.94637 731 ft 2 kts 127°
2026-05-04 02:12 35.21737 -80.94615 731 ft 3 kts 57°
2026-05-04 02:12 35.21754 -80.94606 731 ft 2 kts 25°
2026-05-04 02:12 35.21759 -80.94601 731 ft 0 kts 39°
2026-05-04 02:13 35.21761 -80.94596 731 ft 0 kts 54°
2026-05-04 02:13 35.21760 -80.94599 731 ft 1 kts 54°
2026-05-04 02:13 35.21759 -80.94599 731 ft 0 kts 54°